| time (UTC) | temp F | wind direction | speed MPH | gust MPH | rain 1hr in | rain 24hr in | rain mn in | humidity % | barometer mb |
| 20260510192407 | 65 | 236 | 6.0 | 7.0 | 0.00 | 0.00 | 0.00 | 45 | 1015.5 |
| 20260510191903 | 66 | 311 | 2.0 | 6.0 | 0.00 | 0.00 | 0.00 | 45 | 1015.4 |
| 20260510191359 | 67 | 72 | 2.0 | 3.0 | 0.00 | 0.00 | 0.00 | 43 | 1015.4 |
| 20260510190856 | 66 | 344 | 1.0 | 3.0 | 0.00 | 0.00 | 0.00 | 42 | 1015.5 |
| 20260510190354 | 66 | 333 | 1.0 | 5.0 | 0.00 | 0.00 | 0.00 | 45 | 1015.5 |
| 20260510185850 | 65 | 344 | 3.0 | 3.0 | 0.00 | 0.00 | 0.00 | 44 | 1015.4 |
| 20260510185348 | 65 | 338 | 0.0 | 5.0 | 0.00 | 0.00 | 0.00 | 43 | 1015.2 |
| 20260510184845 | 65 | 276 | 5.0 | 7.0 | 0.00 | 0.00 | 0.00 | 46 | 1015.4 |
| 20260510184342 | 65 | 330 | 3.0 | 7.0 | 0.00 | 0.00 | 0.00 | 45 | 1015.5 |
| 20260510183841 | 65 | 237 | 5.0 | 8.0 | 0.00 | 0.00 | 0.00 | 44 | 1015.2 |
| 20260510183338 | 65 | 215 | 3.0 | 7.0 | 0.00 | 0.00 | 0.00 | 45 | 1015.1 |
| 20260510182833 | 64 | 5 | 3.0 | 5.0 | 0.00 | 0.00 | 0.00 | 45 | 1015.3 |
| 20260510182330 | 64 | 336 | 1.0 | 3.0 | 0.00 | 0.00 | 0.00 | 45 | 1015.3 |
| 20260510181826 | 64 | 44 | 3.0 | 8.0 | 0.00 | 0.00 | 0.00 | 46 | 1015.4 |
| 20260510181323 | 65 | 56 | 5.0 | 6.0 | 0.00 | 0.00 | 0.00 | 46 | 1015.4 |
| 20260510180819 | 64 | 26 | 1.0 | 6.0 | 0.00 | 0.00 | 0.00 | 45 | 1015.4 |
| 20260510180316 | 66 | 49 | 4.0 | 6.0 | 0.00 | 0.00 | 0.00 | 43 | 1015.5 |
| 20260510175814 | 65 | 352 | 0.0 | 1.0 | 0.00 | 0.00 | 0.00 | 45 | 1015.1 |
| 20260510175309 | 65 | 334 | 1.0 | 3.0 | 0.00 | 0.00 | 0.00 | 43 | 1014.8 |
| 20260510174806 | 65 | 342 | 1.0 | 5.0 | 0.00 | 0.00 | 0.00 | 47 | 1014.7 |
| 20260510174303 | 64 | 25 | 4.0 | 5.0 | 0.00 | 0.00 | 0.00 | 45 | 1014.9 |
| 20260510173800 | 64 | 40 | 4.0 | 6.0 | 0.00 | 0.00 | 0.00 | 46 | 1015.0 |
| 20260510173255 | 64 | 53 | 4.0 | 5.0 | 0.00 | 0.00 | 0.00 | 50 | 1015.3 |
| 20260510172750 | 65 | 52 | 2.0 | 3.0 | 0.00 | 0.00 | 0.00 | 46 | 1015.0 |
| 20260510172247 | 64 | 352 | 2.0 | 5.0 | 0.00 | 0.00 | 0.00 | 46 | 1015.2 |
| 20260510171744 | 64 | 330 | 2.0 | 7.0 | 0.00 | 0.00 | 0.00 | 44 | 1015.1 |
| 20260510171242 | 64 | 320 | 2.0 | 7.0 | 0.00 | 0.00 | 0.00 | 43 | 1015.2 |
| 20260510170739 | 64 | 342 | 1.0 | 3.0 | 0.00 | 0.00 | 0.00 | 42 | 1015.1 |
| 20260510170235 | 64 | 354 | 1.0 | 6.0 | 0.00 | 0.00 | 0.00 | 46 | 1014.9 |
| 20260510165730 | 64 | 18 | 4.0 | 6.0 | 0.00 | 0.00 | 0.00 | 44 | 1015.2 |
| 20260510165226 | 66 | 75 | 2.0 | 5.0 | 0.00 | 0.00 | 0.00 | 42 | 1015.0 |
| 20260510164724 | 65 | 358 | 1.0 | 3.0 | 0.00 | 0.00 | 0.00 | 42 | 1015.2 |
| 20260510164221 | 64 | 355 | 2.0 | 3.0 | 0.00 | 0.00 | 0.00 | 42 | 1015.3 |
| 20260510163716 | 63 | 13 | 1.0 | 5.0 | 0.00 | 0.00 | 0.00 | 44 | 1015.0 |
| 20260510163212 | 64 | 15 | 2.0 | 5.0 | 0.00 | 0.00 | 0.00 | 46 | 1015.2 |
| 20260510162711 | 64 | 23 | 2.0 | 5.0 | 0.00 | 0.00 | 0.00 | 45 | 1015.3 |
| 20260510162209 | 63 | 0 | 0.0 | 6.0 | 0.00 | 0.00 | 0.00 | 43 | 1015.1 |
| 20260510161705 | 63 | 343 | 1.0 | 5.0 | 0.00 | 0.00 | 0.00 | 44 | 1015.4 |
| 20260510161201 | 64 | 84 | 5.0 | 8.0 | 0.00 | 0.00 | 0.00 | 42 | 1015.1 |
| 20260510160659 | 63 | 346 | 2.0 | 5.0 | 0.00 | 0.00 | 0.00 | 44 | 1015.3 |
| 20260510160159 | 63 | 351 | 5.0 | 8.0 | 0.00 | 0.00 | 0.00 | 43 | 1015.1 |
| 20260510155655 | 64 | 344 | 1.0 | 5.0 | 0.00 | 0.00 | 0.00 | 46 | 1015.0 |
| 20260510155151 | 63 | 348 | 0.0 | 2.0 | 0.00 | 0.00 | 0.00 | 46 | 1014.8 |
| 20260510154646 | 63 | 1 | 1.0 | 5.0 | 0.00 | 0.00 | 0.00 | 51 | 1014.9 |
| 20260510154143 | 62 | 332 | 1.0 | 2.0 | 0.00 | 0.00 | 0.00 | 50 | 1014.6 |
| 20260510153638 | 62 | 24 | 2.0 | 3.0 | 0.00 | 0.00 | 0.00 | 49 | 1014.8 |
| 20260510153135 | 62 | 38 | 1.0 | 6.0 | 0.00 | 0.00 | 0.00 | 49 | 1014.9 |
| 20260510152631 | 62 | 15 | 2.0 | 3.0 | 0.00 | 0.00 | 0.00 | 54 | 1014.5 |
| 20260510152127 | 62 | 4 | 1.0 | 3.0 | 0.00 | 0.00 | 0.00 | 52 | 1014.7 |
| 20260510151624 | 62 | 346 | 3.0 | 3.0 | 0.00 | 0.00 | 0.00 | 52 | 1014.5 |
| 20260510151123 | 61 | 349 | 2.0 | 3.0 | 0.00 | 0.00 | 0.00 | 55 | 1014.6 |
| 20260510150622 | 60 | 31 | 1.0 | 5.0 | 0.00 | 0.00 | 0.00 | 55 | 1014.5 |
| 20260510150118 | 59 | 1 | 0.0 | 5.0 | 0.00 | 0.00 | 0.00 | 57 | 1014.4 |
| 20260510145615 | 60 | 345 | 1.0 | 5.0 | 0.00 | 0.00 | 0.00 | 57 | 1014.5 |
| 20260510145111 | 59 | 26 | 2.0 | 5.0 | 0.00 | 0.00 | 0.00 | 58 | 1014.2 |
| 20260510144608 | 60 | 39 | 3.0 | 5.0 | 0.00 | 0.00 | 0.00 | 57 | 1014.3 |
| 20260510144104 | 60 | 13 | 2.0 | 5.0 | 0.00 | 0.00 | 0.00 | 57 | 1014.2 |
| 20260510143559 | 58 | 5 | 0.0 | 2.0 | 0.00 | 0.00 | 0.00 | 58 | 1014.0 |
| 20260510143056 | 59 | 13 | 4.0 | 5.0 | 0.00 | 0.00 | 0.00 | 58 | 1014.0 |
| 20260510142553 | 58 | 342 | 2.0 | 5.0 | 0.00 | 0.00 | 0.00 | 57 | 1014.0 |
| 20260510142049 | 59 | 47 | 2.0 | 7.0 | 0.00 | 0.00 | 0.00 | 58 | 1013.9 |
| 20260510141546 | 58 | 343 | 2.0 | 3.0 | 0.00 | 0.00 | 0.00 | 59 | 1014.0 |
| 20260510141044 | 57 | 347 | 3.0 | 5.0 | 0.00 | 0.00 | 0.00 | 59 | 1013.8 |
| 20260510140540 | 59 | 75 | 3.0 | 6.0 | 0.00 | 0.00 | 0.00 | 58 | 1013.8 |
| 20260510140039 | 57 | 38 | 1.0 | 3.0 | 0.00 | 0.00 | 0.00 | 61 | 1013.8 |
| 20260510135535 | 57 | 5 | 2.0 | 2.0 | 0.00 | 0.00 | 0.00 | 60 | 1013.9 |
| 20260510135032 | 55 | 12 | 1.0 | 2.0 | 0.00 | 0.00 | 0.00 | 63 | 1013.8 |
| 20260510134529 | 55 | 6 | 1.0 | 5.0 | 0.00 | 0.00 | 0.00 | 62 | 1013.6 |
| 20260510134026 | 55 | 16 | 2.0 | 3.0 | 0.00 | 0.00 | 0.00 | 62 | 1013.6 |
| 20260510133522 | 55 | 0 | 1.0 | 5.0 | 0.00 | 0.00 | 0.00 | 63 | 1013.7 |
| 20260510133018 | 56 | 18 | 2.0 | 3.0 | 0.00 | 0.00 | 0.00 | 64 | 1013.6 |
| 20260510132515 | 55 | 323 | 0.0 | 1.0 | 0.00 | 0.00 | 0.00 | 63 | 1013.7 |
| 20260510132012 | 55 | 338 | 2.0 | 3.0 | 0.00 | 0.00 | 0.00 | 63 | 1013.5 |
| 20260510131509 | 55 | 347 | 1.0 | 3.0 | 0.00 | 0.00 | 0.00 | 65 | 1013.4 |
| 20260510131007 | 55 | 352 | 0.0 | 3.0 | 0.00 | 0.00 | 0.00 | 66 | 1013.1 |
| 20260510130502 | 55 | 28 | 1.0 | 2.0 | 0.00 | 0.00 | 0.00 | 66 | 1013.3 |
| 20260510130000 | 55 | 10 | 2.0 | 3.0 | 0.00 | 0.00 | 0.00 | 66 | 1013.2 |
| 20260510125456 | 54 | 37 | 1.0 | 2.0 | 0.00 | 0.00 | 0.00 | 66 | 1013.4 |
| 20260510124953 | 54 | 351 | 0.0 | 1.0 | 0.00 | 0.00 | 0.00 | 68 | 1013.2 |
| 20260510124449 | 54 | 12 | 0.0 | 1.0 | 0.00 | 0.00 | 0.00 | 68 | 1013.2 |
| 20260510123946 | 54 | 9 | 2.0 | 2.0 | 0.00 | 0.00 | 0.00 | 69 | 1012.9 |
| 20260510123442 | 54 | 346 | 0.0 | 2.0 | 0.00 | 0.00 | 0.00 | 71 | 1012.7 |
| 20260510122938 | 53 | 4 | 3.0 | 3.0 | 0.00 | 0.00 | 0.00 | 70 | 1012.7 |
| 20260510122433 | 54 | 352 | 1.0 | 1.0 | 0.00 | 0.00 | 0.00 | 71 | 1012.8 |
| 20260510121929 | 53 | 0 | 0.0 | 1.0 | 0.00 | 0.00 | 0.00 | 73 | 1012.8 |
| 20260510121427 | 53 | 352 | 0.0 | 0.0 | 0.00 | 0.00 | 0.00 | 73 | 1012.8 |
| 20260510120924 | 54 | 354 | 0.0 | 1.0 | 0.00 | 0.00 | 0.00 | 74 | 1012.5 |
| 20260510120421 | 54 | 350 | 0.0 | 0.0 | 0.00 | 0.00 | 0.00 | 75 | 1012.8 |
| 20260510115917 | 54 | 18 | 0.0 | 1.0 | 0.00 | 0.00 | 0.00 | 72 | 1012.3 |
| 20260510115414 | 54 | 7 | 0.0 | 1.0 | 0.00 | 0.00 | 0.00 | 72 | 1012.4 |
| 20260510114910 | 54 | 8 | 0.0 | 1.0 | 0.00 | 0.00 | 0.00 | 70 | 1012.4 |
| 20260510114408 | 54 | 354 | 1.0 | 1.0 | 0.00 | 0.00 | 0.00 | 70 | 1012.5 |
| 20260510113902 | 54 | 1 | 0.0 | 3.0 | 0.00 | 0.00 | 0.00 | 70 | 1012.4 |
| 20260510113359 | 54 | 341 | 1.0 | 3.0 | 0.00 | 0.00 | 0.00 | 70 | 1012.4 |
| 20260510112856 | 54 | 324 | 2.0 | 3.0 | 0.00 | 0.00 | 0.00 | 70 | 1012.0 |
| 20260510112353 | 54 | 12 | 1.0 | 6.0 | 0.00 | 0.00 | 0.00 | 69 | 1012.0 |
| 20260510111848 | 54 | 13 | 1.0 | 5.0 | 0.00 | 0.00 | 0.00 | 69 | 1011.8 |
| 20260510111345 | 54 | 349 | 1.0 | 3.0 | 0.00 | 0.00 | 0.00 | 69 | 1011.8 |
| 20260510110840 | 54 | 357 | 1.0 | 2.0 | 0.00 | 0.00 | 0.00 | 70 | 1011.8 |
| 20260510110337 | 55 | 9 | 0.0 | 3.0 | 0.00 | 0.00 | 0.00 | 70 | 1011.8 |
| 20260510105834 | 55 | 349 | 0.0 | 5.0 | 0.00 | 0.00 | 0.00 | 72 | 1011.7 |
| 20260510105333 | 55 | 351 | 2.0 | 3.0 | 0.00 | 0.00 | 0.00 | 73 | 1011.6 |
| 20260510104830 | 55 | 347 | 0.0 | 2.0 | 0.00 | 0.00 | 0.00 | 74 | 1011.3 |
| 20260510104327 | 55 | 358 | 2.0 | 3.0 | 0.00 | 0.00 | 0.00 | 77 | 1011.1 |
| 20260510103823 | 55 | 353 | 0.0 | 1.0 | 0.00 | 0.00 | 0.00 | 79 | 1011.0 |
| 20260510103320 | 55 | 350 | 0.0 | 0.0 | 0.00 | 0.00 | 0.00 | 79 | 1010.9 |
| 20260510102815 | 55 | 353 | 0.0 | 2.0 | 0.00 | 0.00 | 0.00 | 79 | 1010.7 |
| 20260510102312 | 55 | 346 | 0.0 | 0.0 | 0.00 | 0.00 | 0.00 | 79 | 1010.9 |
| 20260510101809 | 55 | 350 | 0.0 | 1.0 | 0.00 | 0.00 | 0.00 | 78 | 1010.5 |
| 20260510101307 | 55 | 11 | 2.0 | 2.0 | 0.00 | 0.00 | 0.00 | 78 | 1010.4 |
| 20260510100803 | 55 | 357 | 0.0 | 0.0 | 0.00 | 0.00 | 0.00 | 78 | 1010.3 |
| 20260510100301 | 55 | 349 | 0.0 | 1.0 | 0.00 | 0.00 | 0.00 | 78 | 1010.3 |
| 20260510095756 | 55 | 342 | 0.0 | 1.0 | 0.00 | 0.00 | 0.00 | 79 | 1010.2 |
| 20260510095251 | 55 | 348 | 0.0 | 0.0 | 0.00 | 0.00 | 0.00 | 79 | 1010.5 |
| 20260510094750 | 55 | 348 | 0.0 | 0.0 | 0.00 | 0.00 | 0.00 | 78 | 1010.4 |
| 20260510094246 | 55 | 347 | 0.0 | 1.0 | 0.00 | 0.00 | 0.00 | 78 | 1010.0 |
| 20260510093742 | 56 | 346 | 0.0 | 1.0 | 0.00 | 0.00 | 0.00 | 78 | 1010.1 |
| 20260510093239 | 56 | 351 | 0.0 | 1.0 | 0.00 | 0.00 | 0.00 | 77 | 1010.1 |
| 20260510092735 | 56 | 348 | 0.0 | 1.0 | 0.00 | 0.00 | 0.00 | 76 | 1010.0 |
| 20260510092231 | 57 | 344 | 0.0 | 2.0 | 0.00 | 0.00 | 0.00 | 76 | 1009.9 |
| 20260510091727 | 57 | 348 | 0.0 | 1.0 | 0.00 | 0.00 | 0.00 | 76 | 1009.4 |
| 20260510091224 | 57 | 349 | 0.0 | 2.0 | 0.00 | 0.00 | 0.00 | 77 | 1009.3 |
| 20260510090720 | 56 | 333 | 1.0 | 3.0 | 0.00 | 0.00 | 0.00 | 79 | 1009.7 |
| 20260510090218 | 56 | 336 | 2.0 | 3.0 | 0.00 | 0.00 | 0.00 | 82 | 1009.2 |
| 20260510085713 | 55 | 338 | 0.0 | 1.0 | 0.00 | 0.00 | 0.00 | 83 | 1009.1 |
| 20260510085208 | 56 | 348 | 0.0 | 1.0 | 0.00 | 0.00 | 0.00 | 82 | 1009.2 |
| 20260510084704 | 57 | 347 | 0.0 | 1.0 | 0.00 | 0.00 | 0.00 | 81 | 1008.9 |
| 20260510084201 | 57 | 354 | 0.0 | 0.0 | 0.00 | 0.00 | 0.00 | 79 | 1008.8 |
| 20260510083658 | 57 | 28 | 1.0 | 1.0 | 0.00 | 0.00 | 0.00 | 79 | 1008.6 |
| 20260510083155 | 57 | 309 | 1.0 | 2.0 | 0.00 | 0.00 | 0.00 | 78 | 1008.6 |
| 20260510082650 | 57 | 356 | 0.0 | 1.0 | 0.00 | 0.00 | 0.00 | 78 | 1008.5 |
| 20260510082146 | 58 | 341 | 0.0 | 1.0 | 0.00 | 0.00 | 0.00 | 77 | 1008.4 |
| 20260510081641 | 58 | 332 | 0.0 | 2.0 | 0.00 | 0.00 | 0.00 | 78 | 1008.5 |
| 20260510081138 | 58 | 342 | 0.0 | 0.0 | 0.00 | 0.00 | 0.00 | 77 | 1008.3 |
| 20260510080637 | 59 | 352 | 0.0 | 0.0 | 0.00 | 0.00 | 0.00 | 76 | 1008.3 |
| 20260510080134 | 59 | 354 | 0.0 | 0.0 | 0.00 | 0.00 | 0.00 | 75 | 1008.1 |
| 20260510075631 | 59 | 345 | 0.0 | 1.0 | 0.00 | 0.00 | 0.00 | 74 | 1008.4 |
| 20260510075128 | 59 | 284 | 2.0 | 2.0 | 0.00 | 0.00 | 0.00 | 73 | 1008.2 |
| 20260510074625 | 60 | 325 | 1.0 | 1.0 | 0.00 | 0.00 | 0.00 | 73 | 1008.2 |
| 20260510074120 | 60 | 344 | 0.0 | 1.0 | 0.00 | 0.00 | 0.00 | 72 | 1008.3 |
| 20260510073617 | 60 | 294 | 1.0 | 5.0 | 0.00 | 0.00 | 0.00 | 71 | 1008.5 |
| 20260510073114 | 60 | 326 | 2.0 | 3.0 | 0.00 | 0.00 | 0.00 | 71 | 1008.3 |
| 20260510072610 | 60 | 317 | 4.0 | 6.0 | 0.00 | 0.00 | 0.00 | 72 | 1008.5 |
| 20260510072107 | 60 | 246 | 3.0 | 3.0 | 0.00 | 0.00 | 0.00 | 72 | 1008.3 |
| 20260510071603 | 60 | 347 | 1.0 | 1.0 | 0.00 | 0.00 | 0.00 | 72 | 1007.9 |
| 20260510071101 | 60 | 347 | 1.0 | 1.0 | 0.00 | 0.00 | 0.00 | 72 | 1008.4 |
| 20260510070557 | 61 | 344 | 0.0 | 2.0 | 0.00 | 0.00 | 0.00 | 71 | 1008.5 |
| 20260510070055 | 61 | 16 | 0.0 | 3.0 | 0.00 | 0.00 | 0.00 | 69 | 1008.6 |
| 20260510065551 | 62 | 299 | 1.0 | 3.0 | 0.00 | 0.00 | 0.00 | 69 | 1008.5 |
| 20260510065047 | 62 | 323 | 1.0 | 3.0 | 0.00 | 0.00 | 0.00 | 68 | 1008.6 |
| 20260510064543 | 62 | 272 | 2.0 | 3.0 | 0.00 | 0.00 | 0.00 | 69 | 1008.1 |
| 20260510064040 | 62 | 347 | 0.0 | 6.0 | 0.00 | 0.00 | 0.00 | 69 | 1008.3 |
| 20260510063537 | 62 | 357 | 2.0 | 5.0 | 0.00 | 0.00 | 0.00 | 71 | 1008.2 |
| 20260510063034 | 62 | 231 | 3.0 | 8.0 | 0.00 | 0.00 | 0.00 | 72 | 1008.6 |
| 20260510062530 | 61 | 318 | 2.0 | 6.0 | 0.00 | 0.00 | 0.00 | 73 | 1008.6 |
| 20260510062025 | 61 | 26 | 1.0 | 3.0 | 0.00 | 0.00 | 0.00 | 74 | 1008.6 |
| 20260510061522 | 61 | 235 | 4.0 | 5.0 | 0.00 | 0.00 | 0.00 | 75 | 1008.7 |
| 20260510061019 | 61 | 309 | 1.0 | 6.0 | 0.00 | 0.00 | 0.00 | 76 | 1008.7 |
| 20260510060515 | 61 | 337 | 5.0 | 8.0 | 0.00 | 0.00 | 0.00 | 75 | 1008.5 |
| 20260510060011 | 61 | 319 | 1.0 | 8.0 | 0.00 | 0.00 | 0.00 | 76 | 1008.6 |
| 20260510055507 | 61 | 254 | 1.0 | 5.0 | 0.00 | 0.00 | 0.00 | 77 | 1008.8 |
| 20260510055006 | 61 | 359 | 2.0 | 6.0 | 0.00 | 0.00 | 0.00 | 77 | 1008.7 |
| 20260510054501 | 61 | 329 | 3.0 | 5.0 | 0.00 | 0.00 | 0.00 | 77 | 1008.7 |
| 20260510053956 | 61 | 338 | 2.0 | 3.0 | 0.00 | 0.00 | 0.00 | 76 | 1008.4 |
| 20260510053451 | 61 | 261 | 1.0 | 5.0 | 0.00 | 0.00 | 0.00 | 76 | 1008.6 |
| 20260510052948 | 61 | 351 | 1.0 | 2.0 | 0.00 | 0.00 | 0.00 | 76 | 1008.6 |
| 20260510052444 | 61 | 332 | 1.0 | 3.0 | 0.00 | 0.00 | 0.00 | 76 | 1008.2 |
| 20260510051940 | 61 | 53 | 1.0 | 3.0 | 0.00 | 0.00 | 0.00 | 75 | 1008.4 |
| 20260510051437 | 62 | 262 | 1.0 | 6.0 | 0.00 | 0.00 | 0.00 | 74 | 1008.2 |
| 20260510050933 | 62 | 237 | 2.0 | 5.0 | 0.00 | 0.00 | 0.00 | 74 | 1008.1 |
| 20260510050430 | 62 | 332 | 1.0 | 5.0 | 0.00 | 0.00 | 0.00 | 74 | 1008.2 |
| 20260510045927 | 62 | 210 | 2.0 | 8.0 | 0.00 | 0.00 | 0.00 | 73 | 1008.3 |
| 20260510045424 | 62 | 219 | 2.0 | 3.0 | 0.00 | 0.00 | 0.00 | 73 | 1008.3 |
| 20260510044921 | 62 | 268 | 1.0 | 5.0 | 0.00 | 0.00 | 0.00 | 73 | 1008.2 |
| 20260510044418 | 62 | 347 | 2.0 | 5.0 | 0.00 | 0.00 | 0.00 | 73 | 1008.0 |
| 20260510043915 | 62 | 228 | 2.0 | 6.0 | 0.00 | 0.00 | 0.00 | 72 | 1008.0 |
| 20260510043411 | 62 | 314 | 1.0 | 8.0 | 0.00 | 0.00 | 0.00 | 72 | 1007.9 |
| 20260510042909 | 62 | 254 | 2.0 | 6.0 | 0.00 | 0.00 | 0.00 | 72 | 1008.1 |
| 20260510042404 | 62 | 225 | 3.0 | 5.0 | 0.00 | 0.00 | 0.00 | 71 | 1007.8 |
| 20260510041900 | 62 | 270 | 4.0 | 5.0 | 0.00 | 0.00 | 0.00 | 70 | 1008.0 |
| 20260510041358 | 62 | 112 | 1.0 | 3.0 | 0.00 | 0.00 | 0.00 | 70 | 1007.9 |
| 20260510040855 | 62 | 301 | 1.0 | 3.0 | 0.00 | 0.00 | 0.00 | 70 | 1007.9 |
| 20260510040352 | 62 | 163 | 2.0 | 5.0 | 0.00 | 0.00 | 0.00 | 69 | 1007.9 |
| 20260510035847 | 62 | 309 | 1.0 | 5.0 | 0.00 | 0.44 | 0.44 | 69 | 1007.8 |
| 20260510035343 | 62 | 186 | 3.0 | 3.0 | 0.00 | 0.44 | 0.44 | 69 | 1007.7 |
| 20260510034839 | 62 | 319 | 2.0 | 2.0 | 0.00 | 0.44 | 0.44 | 69 | 1007.8 |
| 20260510034337 | 62 | 355 | 1.0 | 2.0 | 0.00 | 0.44 | 0.44 | 69 | 1007.8 |
| 20260510033833 | 62 | 32 | 2.0 | 3.0 | 0.00 | 0.44 | 0.44 | 69 | 1007.6 |
| 20260510033330 | 62 | 343 | 3.0 | 3.0 | 0.00 | 0.44 | 0.44 | 69 | 1007.5 |
| 20260510032827 | 62 | 339 | 1.0 | 2.0 | 0.00 | 0.44 | 0.44 | 68 | 1007.6 |
| 20260510032324 | 62 | 355 | 1.0 | 2.0 | 0.00 | 0.44 | 0.44 | 68 | 1007.7 |
| 20260510031819 | 62 | 6 | 1.0 | 2.0 | 0.00 | 0.44 | 0.44 | 68 | 1007.5 |
| 20260510031315 | 62 | 292 | 1.0 | 3.0 | 0.00 | 0.44 | 0.44 | 68 | 1007.6 |
| 20260510030809 | 63 | 282 | 2.0 | 3.0 | 0.00 | 0.44 | 0.44 | 68 | 1007.5 |
| 20260510030306 | 63 | 15 | 1.0 | 2.0 | 0.00 | 0.44 | 0.44 | 68 | 1007.5 |
| 20260510025803 | 63 | 4 | 1.0 | 2.0 | 0.00 | 0.44 | 0.44 | 67 | 1007.4 |
| 20260510025301 | 63 | 328 | 1.0 | 2.0 | 0.00 | 0.44 | 0.44 | 67 | 1007.6 |
| 20260510024757 | 63 | 202 | 1.0 | 3.0 | 0.00 | 0.44 | 0.44 | 67 | 1007.7 |
| 20260510024254 | 63 | 350 | 1.0 | 1.0 | 0.00 | 0.44 | 0.44 | 68 | 1007.6 |
| 20260510023750 | 62 | 285 | 1.0 | 2.0 | 0.00 | 0.44 | 0.44 | 69 | 1007.6 |
| 20260510023247 | 63 | 7 | 1.0 | 2.0 | 0.00 | 0.44 | 0.44 | 68 | 1007.3 |
| 20260510022743 | 62 | 167 | 2.0 | 3.0 | 0.00 | 0.44 | 0.44 | 68 | 1007.4 |
| 20260510022243 | 62 | 329 | 1.0 | 3.0 | 0.00 | 0.44 | 0.44 | 68 | 1007.5 |
| 20260510021743 | 63 | 349 | 0.0 | 2.0 | 0.00 | 0.44 | 0.44 | 68 | 1007.3 |
| 20260510021241 | 63 | 322 | 0.0 | 5.0 | 0.00 | 0.44 | 0.44 | 68 | 1007.1 |
| 20260510020736 | 62 | 345 | 1.0 | 2.0 | 0.00 | 0.44 | 0.44 | 68 | 1007.2 |
| 20260510020231 | 63 | 345 | 0.0 | 1.0 | 0.00 | 0.44 | 0.44 | 68 | 1007.1 |
| 20260510015728 | 63 | 272 | 1.0 | 2.0 | 0.00 | 0.44 | 0.44 | 67 | 1007.1 |
| 20260510015224 | 63 | 336 | 0.0 | 3.0 | 0.00 | 0.44 | 0.44 | 67 | 1006.9 |
| 20260510014719 | 63 | 330 | 1.0 | 2.0 | 0.00 | 0.44 | 0.44 | 67 | 1006.8 |
| 20260510014217 | 63 | 331 | 1.0 | 1.0 | 0.00 | 0.44 | 0.44 | 67 | 1006.7 |
| 20260510013712 | 64 | 4 | 0.0 | 1.0 | 0.00 | 0.44 | 0.44 | 66 | 1007.0 |
| 20260510013208 | 64 | 333 | 1.0 | 2.0 | 0.00 | 0.44 | 0.44 | 65 | 1006.6 |
| 20260510012708 | 64 | 338 | 1.0 | 1.0 | 0.00 | 0.44 | 0.44 | 64 | 1006.3 |
| 20260510012203 | 64 | 235 | 2.0 | 2.0 | 0.00 | 0.44 | 0.44 | 65 | 1006.4 |
| 20260510011658 | 64 | 319 | 1.0 | 2.0 | 0.00 | 0.44 | 0.44 | 64 | 1006.4 |
| 20260510011154 | 64 | 355 | 0.0 | 2.0 | 0.00 | 0.44 | 0.44 | 64 | 1006.4 |
| 20260510010650 | 65 | 4 | 1.0 | 1.0 | 0.00 | 0.44 | 0.44 | 64 | 1006.4 |
| 20260510010148 | 65 | 222 | 0.0 | 1.0 | 0.00 | 0.44 | 0.44 | 63 | 1006.1 |
| 20260510005643 | 65 | 16 | 1.0 | 1.0 | 0.00 | 0.44 | 0.44 | 63 | 1006.3 |
| 20260510005141 | 65 | 345 | 0.0 | 3.0 | 0.00 | 0.44 | 0.44 | 62 | 1006.3 |
| 20260510004639 | 66 | 351 | 0.0 | 3.0 | 0.00 | 0.44 | 0.44 | 62 | 1006.1 |
| 20260510004137 | 66 | 348 | 2.0 | 5.0 | 0.00 | 0.44 | 0.44 | 60 | 1006.0 |
| 20260510003634 | 67 | 239 | 2.0 | 3.0 | 0.00 | 0.44 | 0.44 | 59 | 1005.9 |
| 20260510003129 | 67 | 59 | 3.0 | 5.0 | 0.00 | 0.44 | 0.44 | 59 | 1006.1 |
| 20260510002629 | 67 | 280 | 3.0 | 3.0 | 0.00 | 0.44 | 0.44 | 58 | 1005.9 |
| 20260510002127 | 68 | 322 | 2.0 | 2.0 | 0.00 | 0.44 | 0.44 | 58 | 1005.7 |
| 20260510001623 | 68 | 342 | 1.0 | 2.0 | 0.00 | 0.44 | 0.44 | 58 | 1005.7 |
| 20260510001122 | 68 | 208 | 3.0 | 5.0 | 0.00 | 0.44 | 0.44 | 56 | 1005.5 |
| 20260510000622 | 68 | 296 | 2.0 | 6.0 | 0.00 | 0.44 | 0.44 | 55 | 1005.6 |
| 20260510000120 | 69 | 227 | 1.0 | 7.0 | 0.00 | 0.44 | 0.44 | 56 | 1005.6 |
| 20260509235616 | 69 | 186 | 4.0 | 8.0 | 0.00 | 0.44 | 0.44 | 55 | 1005.6 |
| 20260509235113 | 69 | 352 | 0.0 | 6.0 | 0.00 | 0.44 | 0.44 | 54 | 1005.5 |
| 20260509234608 | 69 | 314 | 1.0 | 3.0 | 0.00 | 0.44 | 0.44 | 54 | 1005.6 |
| 20260509234107 | 69 | 323 | 1.0 | 5.0 | 0.00 | 0.44 | 0.44 | 54 | 1005.5 |
| 20260509233604 | 70 | 298 | 2.0 | 5.0 | 0.00 | 0.44 | 0.44 | 55 | 1005.6 |
| 20260509233101 | 70 | 355 | 1.0 | 2.0 | 0.00 | 0.44 | 0.44 | 54 | 1005.6 |
| 20260509232557 | 70 | 340 | 2.0 | 6.0 | 0.00 | 0.44 | 0.44 | 54 | 1005.2 |
| 20260509232054 | 71 | 189 | 3.0 | 5.0 | 0.00 | 0.44 | 0.44 | 54 | 1005.2 |
| 20260509231551 | 71 | 99 | 3.0 | 7.0 | 0.00 | 0.44 | 0.44 | 53 | 1005.2 |
| 20260509231049 | 71 | 270 | 2.0 | 9.0 | 0.00 | 0.44 | 0.44 | 54 | 1005.4 |
| 20260509230545 | 71 | 109 | 4.0 | 9.0 | 0.00 | 0.44 | 0.44 | 52 | 1005.3 |
| 20260509230043 | 71 | 194 | 4.0 | 7.0 | 0.00 | 0.44 | 0.44 | 53 | 1005.3 |
| 20260509225538 | 71 | 279 | 5.0 | 13.0 | 0.00 | 0.44 | 0.44 | 52 | 1005.3 |
| 20260509225033 | 71 | 210 | 3.0 | 7.0 | 0.00 | 0.44 | 0.44 | 53 | 1005.4 |
| 20260509224529 | 71 | 239 | 2.0 | 7.0 | 0.00 | 0.44 | 0.44 | 52 | 1005.3 |
| 20260509224026 | 71 | 161 | 2.0 | 5.0 | 0.00 | 0.44 | 0.44 | 53 | 1005.2 |
| 20260509223523 | 71 | 233 | 5.0 | 8.0 | 0.00 | 0.44 | 0.44 | 51 | 1005.1 |
| 20260509223021 | 71 | 167 | 5.0 | 8.0 | 0.00 | 0.44 | 0.44 | 51 | 1005.1 |
| 20260509222517 | 71 | 278 | 3.0 | 7.0 | 0.00 | 0.44 | 0.44 | 51 | 1005.1 |
| 20260509222012 | 71 | 226 | 5.0 | 7.0 | 0.00 | 0.44 | 0.44 | 52 | 1005.0 |
| 20260509221508 | 71 | 202 | 3.0 | 7.0 | 0.00 | 0.44 | 0.44 | 52 | 1005.2 |
| 20260509221004 | 71 | 310 | 5.0 | 8.0 | 0.00 | 0.44 | 0.44 | 52 | 1005.1 |
| 20260509220501 | 71 | 286 | 4.0 | 6.0 | 0.00 | 0.44 | 0.44 | 55 | 1005.2 |
| 20260509215956 | 71 | 198 | 3.0 | 9.0 | 0.00 | 0.44 | 0.44 | 54 | 1005.2 |
| 20260509215452 | 71 | 157 | 4.0 | 7.0 | 0.00 | 0.44 | 0.44 | 53 | 1005.5 |
| 20260509214950 | 71 | 291 | 3.0 | 14.0 | 0.00 | 0.44 | 0.44 | 53 | 1005.6 |
| 20260509214447 | 71 | 272 | 1.0 | 7.0 | 0.00 | 0.44 | 0.44 | 54 | 1005.3 |
| 20260509213943 | 71 | 59 | 1.0 | 8.0 | 0.00 | 0.44 | 0.44 | 54 | 1005.3 |
| 20260509213440 | 71 | 235 | 3.0 | 13.0 | 0.00 | 0.44 | 0.44 | 54 | 1005.8 |
| 20260509212937 | 71 | 353 | 3.0 | 8.0 | 0.00 | 0.44 | 0.44 | 57 | 1005.5 |
| 20260509212434 | 71 | 183 | 6.0 | 13.0 | 0.00 | 0.44 | 0.44 | 55 | 1005.5 |
| 20260509211930 | 71 | 248 | 5.0 | 10.0 | 0.00 | 0.44 | 0.44 | 55 | 1005.7 |
| 20260509211426 | 71 | 200 | 7.0 | 8.0 | 0.00 | 0.44 | 0.44 | 54 | 1005.6 |
| 20260509210923 | 71 | 344 | 2.0 | 6.0 | 0.00 | 0.44 | 0.44 | 55 | 1005.5 |
| 20260509210420 | 71 | 163 | 4.0 | 9.0 | 0.00 | 0.44 | 0.44 | 54 | 1005.6 |
| 20260509205916 | 71 | 209 | 3.0 | 10.0 | 0.00 | 0.44 | 0.44 | 53 | 1005.7 |
| 20260509205415 | 70 | 194 | 3.0 | 11.0 | 0.00 | 0.44 | 0.44 | 54 | 1005.6 |
| 20260509204912 | 70 | 258 | 5.0 | 8.0 | 0.00 | 0.44 | 0.44 | 53 | 1005.7 |
| 20260509204408 | 71 | 151 | 8.0 | 11.0 | 0.00 | 0.44 | 0.44 | 54 | 1005.6 |
| 20260509203904 | 70 | 146 | 4.0 | 8.0 | 0.00 | 0.44 | 0.44 | 54 | 1005.7 |
| 20260509203400 | 70 | 244 | 7.0 | 11.0 | 0.00 | 0.44 | 0.44 | 55 | 1005.7 |
| 20260509202858 | 70 | 176 | 5.0 | 9.0 | 0.00 | 0.44 | 0.44 | 54 | 1005.9 |
| 20260509202354 | 70 | 210 | 5.0 | 8.0 | 0.00 | 0.44 | 0.44 | 56 | 1005.8 |
| 20260509201849 | 70 | 260 | 3.0 | 17.0 | 0.00 | 0.44 | 0.44 | 58 | 1005.6 |
| 20260509201345 | 70 | 282 | 3.0 | 7.0 | 0.00 | 0.44 | 0.44 | 57 | 1005.6 |
| 20260509200842 | 69 | 174 | 5.0 | 17.0 | 0.00 | 0.44 | 0.44 | 57 | 1006.1 |
| 20260509200337 | 69 | 254 | 2.0 | 9.0 | 0.00 | 0.44 | 0.44 | 58 | 1006.1 |
| 20260509195834 | 69 | 123 | 2.0 | 5.0 | 0.00 | 0.44 | 0.44 | 60 | 1006.0 |
| 20260509195334 | 69 | 107 | 2.0 | 6.0 | 0.00 | 0.44 | 0.44 | 58 | 1006.3 |
| 20260509194833 | 69 | 280 | 3.0 | 9.0 | 0.00 | 0.44 | 0.44 | 60 | 1006.1 |
| 20260509194330 | 70 | 69 | 3.0 | 9.0 | 0.00 | 0.44 | 0.44 | 60 | 1006.3 |
| 20260509193826 | 69 | 170 | 4.0 | 9.0 | 0.00 | 0.44 | 0.44 | 58 | 1006.3 |
| 20260509193321 | 69 | 343 | 1.0 | 7.0 | 0.00 | 0.44 | 0.44 | 60 | 1006.3 |
| 20260509192817 | 69 | 256 | 4.0 | 7.0 | 0.00 | 0.44 | 0.44 | 60 | 1006.4 |